Location: Équennes
(49.7375°N, 1.9622°E)
Time: 08:23:00
(UTC+00:00)

Cosmos 2278 Rocket - Visible Passes

Search period start: 24 September 2023 00:00
Search period end: 04 October 2023 00:00
Orbit: 839 x 847 km, 71.0° (Epoch: 23 September)

Date Brightness Start Highest point End Pass type
(mag) Time Alt. Az. Time Alt. Az. Time Alt. Az.
24 Sep 2.9 19:13:52 10° NNW 19:19:10 38° NE 19:21:50 25° E visible
24 Sep 2.9 20:57:58 10° NW 21:03:22 45° WSW 21:03:41 44° WSW visible
25 Sep 2.9 18:59:12 10° NNW 19:04:28 37° NE 19:07:41 21° ESE visible
25 Sep 2.9 20:43:17 10° NW 20:48:41 46° WSW 20:49:32 43° SW visible
26 Sep 2.9 18:44:32 10° NNW 18:49:46 36° NE 18:53:36 17° ESE visible
26 Sep 2.9 20:28:35 10° NW 20:34:01 48° WSW 20:35:27 39° SSW visible
27 Sep 3.0 18:29:52 10° NNW 18:35:03 35° NE 18:39:35 13° ESE visible
27 Sep 2.9 20:13:53 10° NW 20:19:21 50° WSW 20:21:26 34° SSW visible
28 Sep 3.0 18:15:12 10° NNW 18:20:21 34° NE 18:25:28 10° ESE visible
28 Sep 2.8 19:59:11 10° NW 20:04:41 53° WSW 20:07:31 27° S visible
29 Sep 3.0 18:00:31 10° NNW 18:05:38 33° NE 18:10:43 10° ESE visible
29 Sep 2.8 19:44:28 10° NW 19:50:01 55° WSW 19:53:41 21° S visible
30 Sep 2.7 19:29:47 10° NW 19:35:20 57° WSW 19:39:57 15° S visible
01 Oct 2.7 19:15:05 10° NW 19:20:40 59° WSW 19:26:12 10° S visible
02 Oct 2.7 19:00:23 10° NW 19:05:59 62° WSW 19:11:33 10° SSE visible
02 Oct 5.1 20:48:44 10° W 20:48:53 10° W 20:49:01 10° W visible
03 Oct 2.6 18:45:41 10° NNW 18:51:19 64° WSW 18:56:53 10° SSE visible
03 Oct 5.1 20:33:06 10° W 20:34:14 11° W 20:35:22 10° WSW visible
